CZ-3C DEB, 40170

Orbit data source: Space-Track

CZ-3C DEB, 40170 is space debris in HEO originally from a launch on Sun, 31 Oct 2010 UTC launched from the Xichang Space Center, China (XSC). Debris objects in space refer to the collection of defunct objects orbiting the Earth. Examples of debris include non-operational satellites, rocket bodies, and fragments generated from explosions, collisions, or faulty payload assembly.

Loading next visibility...
Identifier
40170, 2010-057Y
Orbit
HEO
Country
Flag of CNCN / PRC
Related business
Manufacturer
CALT
Mission
Spacecraft
Bus & Motor
Unknown
Mass
Unknown
Launch date (UTC)
2010-10-31 (15 years ago)
Launch vehicle
Unknown
Launch site
Xichang Space Center, China (XSC)
Object type
Payload
Rocket body
Debris
Shape & HBR
Unknown shape, 0.3 m
Radar Cross Section
Medium (>0.1 m² and <1 m²)

Expand to show TLE details & history
Last TLE update: 2 days ago

TLE from 2 days ago
0 CZ-3C DEB
1 40170U 10057Y   26103.35783781 -.00000142  00000-0 -18423-2 0  9998
2 40170  19.7432 129.0172 7133863 100.4620   1.4046  2.23765147104272
Epoch: 2026-04-13T08:35Z
TLE epoch observation values (Epoch: 2026-04-13T08:35:17.186Z)
Latitude
18.20061°
Longitude
-86.89521°
Altitude
756.701 km
Speed
9.778 km/s
True Right ascension
16h 13m 54s
True Declination
18° 05' 56"
Sunlit
Object was in full shadow at epoch
Visualization orbit readout
Latitude
Unknown
Longitude
Unknown
Altitude
Unknown
Speed
Unknown
Apparent Right ascension
Unknown
Apparent Declination
Unknown
Sunlit
N/A
Visualization observer readout
Local Sidereal Time
05:58:41
Azimuth
Unknown
Elevation
Unknown
Doppler factor
Unknown
Orbital elements
Apogee altitude
35,934.621 km
Perigee altitude
699.903 km
Semi-major axis
24,695.399 km
Eccentricity
0.71339
Inclination
19.7432°
RAAN
129.0172°
Arg. of periapsis
100.462°
True anomaly
11.9103°
Mean anomaly
1.4046°
Eccentric anomaly
4.88594°
Mean motion
0.55927 °/min
Orbital period
643.7 mins
BSTAR
-0.0018423
Loading maneuver chart data...
Computing Atmospheric mass density...
Loading historical data...
Loading historical data...
Loading historical data...
Loading historical data...
Loading historical data...
Loading historical data...
Loading historical data...

Documentation

Showing up to 5 results
|